Location: Igon
(43.1667°N, 0.2333°W)
Time: 14:04:36
(UTC+00:00)

SJ-11-02 - Visible Passes

Search period start: 20 June 2021 00:00
Search period end: 30 June 2021 00:00
Orbit: 680 x 695 km, 98.5° (Epoch: 18 June)

Date Brightness Start Highest point End Pass type
(mag) Time Alt. Az. Time Alt. Az. Time Alt. Az.
21 Jun ? 20:28:00 10° NNW 20:30:42 15° WNW 20:33:22 10° W visible
24 Jun ? 20:46:31 10° NW 20:47:38 11° WNW 20:48:44 10° WNW visible
26 Jun ? 20:23:56 10° NNW 20:26:54 17° WNW 20:29:50 10° WSW visible
29 Jun ? 20:42:07 10° NW 20:43:50 12° WNW 20:45:33 10° W visible
